Location: Brabourne
(51.1333°N, 1.0000°E)
Time: 20:21:44
(UTC+00:00)

Cosmos 1825 Rocket - Pass Details

Date: 17 October 2021
Orbit: 604 x 631 km, 82.5° (Epoch: 03 December)

Event Time Altitude Azimuth Distance (km) Brightness Sun altitude
Rises 21:02:18 0° 338° (NNW) 2,887 7.7 -37.3°
Reaches altitude 10° 21:04:58 10° 322° (NW) 1,973 6.8 -37.6°
Enters shadow 21:05:52 14° 312° (NW) 1,723 6.5 -37.7°
